This demonstration page uses our WeatherBlox Daily Observations layout. Learn more.

Left ArrowRight Arrow

Hourly Observations for April 20, 2016

Temp ( °F °C ) Dew Point ( °F °C ) Humidity (%) Winds ( mph kmh ) Pressure ( in mb ) Visibility ( mi km ) Precip ( " mm )
12:54 am 00:54 Cloudy with Light Rain 52 11.1 49 9.4 89 89 N 7 11 30.07 1018 10 16 0.00 0.03
1:54 am 01:54 Cloudy with Light Rain 52 11.1 49 9.4 89 89 N 5 7 30.05 1018 10 16 0.00 0.03
2:54 am 02:54 Cloudy with Light Rain 53 11.7 49 9.4 86 86 WNW 3 6 30.03 1017 7 11 0.00 0.03
3:54 am 03:54 Cloudy with Rain 52 11.1 49 9.4 89 89 NW 10 17 30.00 1016 4 6 0.05 1.27
4:39 am 04:39 Cloudy with Heavy Rain 52 11 50 10 94 94 NW 13 20 30.00 1016 2 3 0.00 0.00
4:45 am 04:45 Cloudy with Rain 52 11.1 50 10 93 93 NW 10 17 30.00 1016 3 5 0.15 3.81
4:54 am 04:54 Cloudy with Rain 52 11.1 50 10 93 93 NNW 14 22 29.98 1015 4 6 0.17 4.32
5:09 am 05:09 Cloudy with Rain 52 11.1 50 10 93 93 NNW 12 19 29.97 1015 3 4 0.03 0.76
5:48 am 05:48 Cloudy with Rain 52 11 50 10 94 94 NNW 13 20 29.97 1015 3 5 0.00 0.00
5:50 am 05:50 Cloudy with Rain 52 11 50 10 94 94 NNW 12 19 29.97 1015 3 5 0.00 0.00
5:54 am 05:54 Cloudy with Rain 52 11.1 50 10 93 93 NNW 14 22 29.96 1014 3 5 0.21 5.33
5:56 am 05:56 Cloudy with Rain 52 11 50 10 94 94 NNW 13 20 29.97 1015 3 5 0.00 0.00
6:00 am 06:00 Cloudy with Rain 52 11 50 10 94 94 NNW 15 24 29.97 1015 3 4 0.00 0.00
6:43 am 06:43 Cloudy with Rain 52 11.1 50 10 93 93 NNW 15 24 29.94 1014 3 5 0.25 6.35
6:54 am 06:54 Mostly Cloudy with Heavy Rain 51 10.6 50 10 96 96 NNW 14 22 29.94 1014 3 4 0.31 7.87
7:15 am 07:15 Cloudy with Rain 51 10.6 50 10 96 96 NNW 13 20 29.94 1014 3 5 0.09 2.29
7:23 am 07:23 Cloudy with Rain 52 11 50 10 94 94 NNW 12 19 29.94 1014 3 5 0.00 0.00
7:30 am 07:30 Cloudy with Rain 52 11 50 10 94 94 NNW 13 20 29.94 1014 3 5 0.00 0.00
7:49 am 07:49 Cloudy with Rain 52 11 50 10 94 94 NNW 14 22 29.94 1014 4 6 0.18 4.57
7:54 am 07:54 Cloudy with Rain 51 10.6 50 10 96 96 NNW 13 20 29.93 1013 4 6 0.20 5.08
8:19 am 08:19 Cloudy with Rain 51 10.6 49 9.4 92 92 N 18 30 29.91 1013 2 3 0.08 2.03
8:32 am 08:32 Cloudy with Rain 52 11 48 9 88 88 N 25 41 29.91 1013 3 4 0.00 0.00
8:46 am 08:46 Cloudy with Rain 51 10.6 49 9.4 92 92 N 25 41 29.88 1012 3 5 0.15 3.81
8:54 am 08:54 Cloudy with Light Rain 51 10.6 49 9.4 92 92 N 22 35 29.89 1012 3 5 0.16 4.06
9:33 am 09:33 Cloudy with Light Rain 52 11 48 9 88 88 NNW 21 33 29.91 1013 4 6 0.00 0.00
9:54 am 09:54 Cloudy with Light Rain 52 11.1 49 9.4 89 89 WNW 14 22 29.93 1013 6 10 0.03 0.76
10:17 am 10:17 Cloudy with Light Rain 52 11.1 49 9.4 89 89 WNW 13 20 29.94 1014 5 8 0.02 0.51
10:30 am 10:30 Cloudy with Light Rain 52 11 48 9 88 88 NW 15 24 29.94 1014 8 13 0.00 0.00
10:50 am 10:50 Cloudy with Light Rain 52 11 48 9 88 88 NW 16 26 29.94 1014 10 16 0.00 0.00
10:54 am 10:54 Cloudy with Light Rain 52 11.1 49 9.4 89 89 NW 17 28 29.93 1014 10 16 0.03 0.76
11:54 am 11:54 Cloudy 54 12.2 50 10 87 87 NW 17 28 29.91 1013 10 16 0.00 0.03
12:54 pm 12:54 Mostly Cloudy 56 13.3 48 8.9 75 75 NW 18 30 29.90 1013 10 16 0.00 0.00
1:54 pm 13:54 Mostly Cloudy 57 13.9 47 8.3 69 69 W 16 26 29.90 1012 10 16 0.00 0.00
2:01 pm 14:01 Cloudy 58 14.4 48 8.9 70 70 WNW 15 24 29.91 1013 10 16 0.00 0.00
2:10 pm 14:10 Cloudy 57 14 46 8 67 67 NW 17 28 29.91 1013 10 16 0.00 0.00
2:54 pm 14:54 Cloudy 60 15.6 46 7.8 60 60 W 14 22 29.89 1012 10 16 0.00 0.00
3:01 pm 15:01 Cloudy 59 15 46 8 63 63 W 15 24 29.91 1013 10 16 0.00 0.00
3:08 pm 15:08 Cloudy 59 15 46 8 63 63 WNW 15 24 29.91 1013 10 16 0.00 0.00
3:27 pm 15:27 Cloudy 60 15.6 46 7.8 60 60 W 15 24 29.85 1011 10 16 0.00 0.00
3:54 pm 15:54 Cloudy 60 15.6 45 7.2 58 58 W 18 30 29.88 1012 10 16 0.00 0.00
4:54 pm 16:54 Mostly Cloudy 60 15.6 46 7.8 60 60 W 17 28 29.87 1012 10 16 0.00 0.00
5:54 pm 17:54 Cloudy 59 15 46 7.8 62 62 W 13 20 29.88 1012 10 16 0.00 0.00
6:54 pm 18:54 Mostly Cloudy 59 15 48 8.9 67 67 W 13 20 29.87 1012 10 16 0.00 0.00
7:29 pm 19:29 Mostly Cloudy 57 14 46 8 67 67 W 8 13 29.88 1012 10 16 0.00 0.00
7:54 pm 19:54 Mostly Sunny 57 13.9 47 8.3 69 69 WNW 10 17 29.87 1012 10 16 0.00 0.00
8:54 pm 20:54 Clear 54 12.2 46 7.8 75 75 W 8 13 29.88 1012 10 16 0.00 0.00
9:54 pm 21:54 Mostly Clear 54 12.2 46 7.8 75 75 W 10 17 29.88 1012 10 16 0.00 0.00
10:54 pm 22:54 Mostly Cloudy with Light Rain 53 11.7 47 8.3 80 80 W 14 22 29.87 1012 10 16 0.00 0.03
11:54 pm 23:54 Cloudy with Light Rain 52 11.1 49 9.4 89 89 W 15 24 29.86 1011 7 11 0.03 0.76

Powered by AerisWeather